Location: Newark
(41.6500°N, 71.4833°W)
Time: 02:05:21
(UTC+00:00)

deb Explorer IX - Pass Details

Date: 28 January 2020
Orbit: 549 x 1099 km, 38.8° (Epoch: 25 February)

Event Time Altitude Azimuth Distance (km) Brightness Sun altitude
Rises 06:48:02 0° 279° (W) 3,906 - -57.0°
Reaches altitude 10° 06:51:09 10° 269° (W) 2,948 - -56.6°
Maximum altitude 06:57:18 30° 212° (SSW) 1,802 - -55.6°
Drops below altitude 10° 07:03:08 10° 154° (SSE) 2,785 - -54.7°
Sets 07:06:00 0° 143° (SE) 3,659 - -54.3°
